Location: Unspecified
(35.3007°N, 0.0000°E)
Time: 05:23:18
(UTC+00:00)

GMS 1 Rocket B - Visible Passes

Search period start: 04 April 2026 00:00
Search period end: 14 April 2026 00:00
Orbit: 529 x 1796 km, 29.1° (Epoch: 29 March)

Date Brightness Start Highest point End Pass type
(mag) Time Alt. Az. Time Alt. Az. Time Alt. Az.
4 Apr 6.6 19:44:20 10° WSW 19:48:58 29° SSW 19:52:20 19° SSE visible
5 Apr 6.5 19:13:56 10° WSW 19:18:12 28° SSW 19:23:19 11° SE visible
5 Apr 7.7 21:10:28 10° SW 21:11:52 12° SW 21:11:52 12° SW visible
6 Apr 6.4 18:43:33 10° WSW 18:47:29 27° SSW 18:52:24 10° SE visible
6 Apr 7.5 20:40:04 10° SW 20:42:38 13° SSW 20:42:53 13° SSW visible
7 Apr 7.4 20:09:43 10° SW 20:11:49 12° SSW 20:13:55 10° S visible
8 Apr 7.4 19:39:26 10° SW 19:41:04 11° SSW 19:42:49 10° S visible
9 Apr 7.3 19:09:12 10° SW 19:10:20 11° SSW 19:11:31 10° S visible
